Location: 3 Angels Observatory
(30.5437°N, 88.5068°W)
Time: 05:52:41
(UTC-05:00)

Daily predictions for brighter satellites

Satellite Brightness Start Highest point End
(mag) Time Altitude Azimuth Time Altitude Azimuth Time Altitude Azimuth
Cosmos 2227 Rocket 4.1 00:33:42 10° NNW 00:36:07 26° N 00:36:07 26° N
Cosmos 1980 Rocket 4.3 01:03:42 20° NE 01:03:42 20° NE 01:05:25 10° NNE
Cosmos 2297 Rocket 4.4 01:28:40 10° NNW 01:30:03 18° NW 01:30:03 18° NW
SL-16 R/B 4.2 01:44:16 23° NE 01:44:16 23° NE 01:46:30 10° NE
Cosmos 2322 Rocket 4.0 01:53:12 27° NE 01:53:12 27° NE 01:55:49 10° NNE
USA 234 3.8 02:03:05 10° NNE 02:08:23 51° N 02:08:23 51° N
Resurs 1-4 Rocket 4.1 02:17:35 10° NE 02:20:23 22° ENE 02:20:23 22° ENE
ATLAS 2AS CENTAUR R/B 3.9 02:26:52 34° ESE 02:26:52 34° ESE 02:33:41 10° NE
ADEOS Rocket 3.6 02:27:03 10° NNE 02:31:34 49° NE 02:31:34 49° NE
CZ-2D R/B 3.4 02:36:46 10° NNE 02:40:47 37° ENE 02:40:47 37° ENE
Cosmos 2263 Rocket 3.3 02:36:58 10° N 02:42:14 38° ENE 02:42:30 38° ENE
Cosmos 2360 Rocket 3.2 02:44:09 43° ENE 02:44:09 43° ENE 02:48:12 10° NNE
Cosmos 1980 Rocket 4.4 02:45:28 15° NW 02:45:28 15° NW 02:47:33 10° NNW
COSMOS 2428 4.5 02:45:35 23° E 02:45:35 23° E 02:49:46 10° NE
Cosmos 2074 Rocket 4.4 02:49:38 57° ENE 02:49:38 57° ENE 02:55:27 10° NNE
CZ-4C R/B 3.2 02:46:01 10° NW 02:51:52 56° WNW 02:51:52 56° WNW
Centaur D AC-29 3.2 03:03:54 27° ESE 03:03:54 27° ESE 03:07:54 10° E
Cosmos 2333 Rocket 4.5 03:02:59 13° ESE 03:04:38 14° E 03:07:33 10° ENE
Centaur D AC-25 4.2 02:47:56 10° W 03:07:55 28° ESE 03:09:40 10° ESE
Cosmos 2322 4.0 03:06:53 62° NE 03:06:53 62° NE 03:11:40 10° NNE
Iridium 4 Rocket 3.9 03:18:26 68° ESE 03:18:41 69° E 03:24:24 10° N
SL-16 R/B 3.9 03:26:08 21° NW 03:26:08 21° NW 03:29:41 10° NNW
Cosmos 1302 Rocket 4.4 03:30:38 52° NW 03:30:38 52° NW 03:35:03 10° N
ADEOS 3.6 03:25:31 10° N 03:30:19 74° NNW 03:30:19 74° NNW
Cosmos 44 Rocket 4.0 03:27:49 10° NNW 03:32:25 50° ENE 03:34:04 34° ESE
Cosmos 2322 Rocket 4.0 03:35:01 18° NW 03:35:01 18° NW 03:38:24 10° NNW
Cosmos 2333 4.4 03:34:25 57° SE 03:35:04 62° ESE 03:40:42 10° NNE
H-2A R/B 3.5 03:02:24 10° W 03:37:16 89° SSW 03:42:25 10° ESE
IRS-1D 4.0 03:34:06 10° N 03:38:05 45° NW 03:38:05 45° NW
SL-16 R/B 2.4 03:40:35 65° WSW 03:40:54 66° WSW 03:47:08 10° NNW
CZ-2D R/B 3.8 03:40:43 10° NNE 03:44:34 65° ENE 03:44:34 65° ENE
Milstar 3 4.1 03:51:51 28° S 03:51:51 28° S 03:58:04 10° SE
Meteor 2-19 Rocket 4.4 03:50:32 51° S 03:52:14 89° E 03:58:25 10° N
Cosmos 1340 Rocket 4.0 03:55:41 10° N 03:59:25 39° E 04:01:10 25° SE
Meteor 1-22 Rocket 4.4 03:57:20 38° SSE 03:59:29 70° E 04:05:18 10° NNE
ADEOS II 3.3 03:56:33 10° NNE 04:01:24 37° E 04:04:54 17° SSE
Resurs 1-4 Rocket 3.1 03:57:07 10° NNW 04:01:28 30° WNW 04:01:28 30° WNW
BREEZE-M DEB (TANK) 3.7 04:05:01 24° NNW 04:05:06 24° NNW 04:08:15 10° NE
ARIANE 5 R/B 3.5 04:02:33 10° NNW 04:06:58 30° WNW 04:06:58 30° WNW
Cosmos 1992 Rocket 3.9 04:07:17 53° SSW 04:08:31 85° WNW 04:13:44 10° NNE
Cosmos 1271 Rocket 3.3 04:11:22 45° NW 04:11:22 45° NW 04:14:44 10° N
Cosmos 2228 4.1 04:13:49 29° WNW 04:13:49 29° WNW 04:16:51 10° NNW
ATLAS 2AS CENTAUR R/B 3.5 04:14:19 31° WSW 04:17:27 45° NW 04:25:08 10° NNE
UNKNOWN OBJECT B 3.9 04:14:39 10° N 04:17:32 31° NW 04:17:32 31° NW
Intercosmos 24 3.8 04:18:33 58° W 04:18:36 59° W 04:22:50 10° N
Cosmos 1184 Rocket 3.6 04:15:23 10° NNW 04:17:42 40° NNW 04:17:42 40° NNW
Cosmos 1295 Rocket 4.4 04:15:47 29° S 04:19:13 83° W 04:25:35 10° N
Cosmos 389 Rocket 2.6 04:21:17 56° WNW 04:21:17 56° WNW 04:24:32 10° N
CZ-2D R/B 3.6 04:17:42 10° NNW 04:21:36 20° WNW 04:22:07 20° WNW
Cosmos 1953 3.7 04:21:58 14° SSE 04:25:02 37° E 04:28:46 10° NNE
Abrixas rocket 2.7 04:25:02 48° SE 04:25:10 49° SE 04:28:24 10° ENE
NOSS 3-4 (A) 4.4 04:20:52 16° S 04:25:27 41° ESE 04:31:21 10° NE
NOSS 3-4 (C) 4.5 04:20:55 16° S 04:25:32 41° ESE 04:31:25 10° NE
Cosmos 2263 Rocket 3.7 04:21:33 10° NW 04:24:05 19° WNW 04:24:05 19° WNW
Cosmos 2360 Rocket 3.9 04:25:56 16° WNW 04:27:00 16° WNW 04:30:28 10° NNW
Lacrosse 5 3.5 04:23:52 15° SSE 04:27:03 26° ESE 04:31:16 10° ENE
COSMOS 2428 3.4 04:27:37 31° WSW 04:29:20 38° WNW 04:34:39 10° N
CZ-4B R/B 3.4 04:26:34 10° NNE 04:30:24 54° E 04:33:04 20° S
Cosmos 2219 Rocket 2.2 04:28:26 34° SW 04:30:53 65° WNW 04:36:32 10° NNE
Cosmos 1980 3.8 04:28:21 23° S 04:31:57 73° ESE 04:37:37 10° NNE
Cosmos 44 3.4 04:27:50 10° NW 04:31:59 40° WSW 04:32:22 40° SW
In-Cosmos 22 4.3 04:27:35 10° N 04:32:54 72° E 04:38:09 10° SSE
Cosmos 2237 Rocket 2.4 04:30:03 21° S 04:33:51 69° ESE 04:39:26 10° NNE
Aureole 2 Rocket 3.2 04:33:21 40° WSW 04:34:10 47° WNW 04:38:10 10° N
OAO 3 Rocket 4.0 04:32:29 17° WNW 04:35:59 49° N 04:40:45 10° ENE
Nadezhda 3 Rocket 4.2 04:30:41 10° NNW 04:36:39 49° W 04:40:38 21° SSW
SL-8 Rocket 4.0 04:32:15 18° S 04:37:08 82° W 04:43:29 10° N
SEDSat Delta rocket 2.7 04:36:49 38° WSW 04:38:18 86° S 04:42:38 10° E
PSLV R/B 3.7 04:40:33 10° N 04:44:29 77° WNW 04:46:47 24° SSW
Cosmos 1470 4.3 04:41:30 10° SSE 04:45:07 36° E 04:48:44 10° NNE
Cosmos 1812 Rocket 3.9 04:43:40 31° SW 04:45:18 45° W 04:49:29 10° N
CZ-4B R/B 3.7 04:40:37 10° NNE 04:46:13 63° ESE 04:51:43 10° S
Cosmos 1844 Rocket 2.6 04:41:09 10° NNW 04:46:51 85° WSW 04:52:30 10° SSE
Cosmos 1544 3.7 04:47:18 33° WSW 04:48:08 37° W 04:51:36 10° NNW
Cosmos 2333 Rocket 2.4 04:45:01 25° SW 04:48:18 57° WNW 04:53:55 10° N
SeaSat 1 3.2 04:45:20 10° SE 04:50:09 57° ENE 04:54:59 10° NNW
Atlas Centaur 2 2.9 04:48:38 20° SSW 04:50:38 28° SSE 04:54:57 10° E
Cosmos 1354 Rocket 4.3 04:48:29 10° NNW 04:53:33 47° WSW 04:58:37 10° S
Okean O Rocket 1.6 04:49:24 10° N 04:53:52 85° WNW 04:57:47 13° SSW
SWIFT 4.4 04:55:48 12° S 04:55:48 12° S 04:57:12 10° SSE
IRS-1C Rocket 4.3 04:51:10 10° NNE 04:56:25 75° ESE 05:01:39 10° S
ATLAS 3B R/B 2.8 04:49:54 10° NNW 04:56:32 74° ENE 05:02:58 10° SE
BREEZE-M DEB (TANK) 3.6 04:46:37 10° NW 04:56:34 60° SW 04:59:53 10° SSE
Okean 3 Rocket 4.3 04:53:21 10° N 04:57:43 57° E 05:02:06 10° SSE
Cosmos 1818 3.6 04:54:14 16° SSW 04:58:39 81° ESE 05:04:06 10° NNE
Meteor 2-21 Rocket 4.4 04:53:04 10° S 04:59:06 76° W 05:05:13 10° N
Meteor 1-24 Rocket 4.1 04:57:49 10° NNW 05:02:52 40° W 05:08:04 10° SSW
USA 161 2.7 05:02:49 25° WSW 05:03:08 25° W 05:05:42 10° NW
ISS -3.9 05:02:00 10° NW 05:05:17 89° SSW 05:08:31 10° SE
NOSS 0 Rocket 4.2 05:01:21 17° SW 05:05:56 51° WNW 05:11:58 10° N
ATLAS 2A CENTAUR R/B 1.5 05:05:15 22° WSW 05:06:39 38° S 05:08:34 10° ESE
Cosmos 1727 Rocket 4.2 05:03:00 10° N 05:09:12 77° E 05:15:21 10° S
Cosmos 482 Debris 2.5 05:08:54 34° WSW 05:09:33 73° NW 05:11:52 10° NE
CZ-4B DEB 4.2 05:04:13 10° N 05:09:46 73° WNW 05:15:17 10° SSW
Cosmos 2278 Rocket 3.0 05:05:32 10° N 05:11:06 56° ENE 05:16:38 10° SE
KM-V1 3.6 05:10:50 10° W 05:15:02 88° N 05:17:26 10° E
GENESIS II 4.1 05:11:43 10° NNW 05:15:36 70° WSW 05:19:25 10° SSE
Cosmos 2366 rocket 4.2 05:11:01 10° SSW 05:16:55 50° W 05:22:55 10° N
Cosmos 1076 Rocket 3.7 05:13:07 10° N 05:17:21 73° E 05:21:36 10° S
USA 238 DEB 3.9 05:10:54 10° NNW 05:18:03 85° ENE 05:25:13 10° SSE
USA 238 3.9 05:11:01 10° NNW 05:18:09 84° ENE 05:25:20 10° SSE
Cosmos 1733 3.2 05:15:15 10° SSW 05:19:05 66° W 05:22:57 10° N
SL-16 R/B 2.5 05:14:31 10° S 05:20:09 69° ESE 05:25:48 10° NNE
Cosmos 1607 4.4 05:14:24 10° NW 05:20:20 39° WSW 05:26:14 10° S
Cosmos 968 Rocket 3.4 05:15:28 10° NNW 05:20:38 85° WSW 05:25:45 10° SSE
BREEZE-M DEB (TANK) 3.9 05:16:57 10° NW 05:26:57 37° WSW 05:30:24 10° S
Tiangong 1 0.7 05:24:55 14° SW 05:27:12 87° SSE 05:29:59 10° ENE
Cosmos 1339 Rocket 4.4 05:23:30 10° N 05:29:32 71° W 05:35:35 10° S
ERBS 3.9 05:31:00 10° WSW 05:33:49 23° NW 05:36:38 10° N
Cosmos 1674 3.0 05:30:42 10° NNW 05:34:25 48° W 05:38:07 10° SSW
Landsat 4 4.1 05:30:58 10° S 05:34:29 39° W 05:37:59 10° NNW
Cosmos 1844 4.1 05:29:26 10° NW 05:34:39 40° WSW 05:39:54 10° S
Cosmos 1356 Rocket 4.4 05:34:30 10° NW 05:37:47 24° W 05:41:01 10° SSW
Okean-O 3.0 05:33:54 10° NNE 05:38:19 70° ESE 05:42:43 10° S
Centaur D-1AR AC-40 3.6 05:37:35 10° SW 05:39:25 12° SSW 05:41:05 10° S
CZ-2C R/B 3.7 05:35:03 10° S 05:39:37 78° W 05:44:07 10° NNW
ADEOS II 3.5 05:36:59 10° NNW 05:40:48 21° WNW 05:44:36 10° WSW
MTI 3.7 05:38:45 10° S 05:42:00 83° WSW 05:45:15 10° NNW
Cosmos 1356 4.0 05:40:49 10° N 05:44:18 63° E 05:47:46 10° SSE
Meteor PRIRODA 4.3 05:41:11 10° N 05:44:39 36° WNW 05:48:04 10° SW
CZ-4B R/B 4.2 05:41:05 10° N 05:45:22 56° WNW 05:49:28 10° SSW
